COSMOS 1579

Satellite information

Favourite Embed

Satellite Type and Status

PAYLOADIN ORBIT

Key statistics

Satellite COSMOS 1579 at a glance.

Uptime

15145

Days in orbit

Revolutions

≈ 13.9

Per day

Orbit

LEO

Low Earth Orbit

Inclination

65.0

Latest

Satellite identification and parameters

Extended collection of information and parameters for COSMOS 1579.

Object identification

Identified? True

Debris? False

Object name: COSMOS 1579

International designator: 1984-069A

Object number (NORAD): 15085

Object ID (CCSDS): 15085

Country: COMMONWEALTH OF INDEPENDENT STATES (CIS)

Current information (Y/N): Y

RCS size: LARGE

Orbital parameters

Period: 103.881 minutes

Inclination: 65.0493 deg

SMA: 7320.087 km

Apoapsis: 965.249 km

Periapsis: 918.655 km

RAAN: 203.6605 deg

Eccentricy: 0.00318261

Argument of periapsis: 98.9614 deg

Mean anomaly: 261.5052 deg

Mean motion: 13.86208091 rev/day

Mean motion (dot): -0.00000047 rev/day2

B* drag term: 0.000036247572 1/REarth

Two-line elements (TLE)

Creation date: Dec. 14, 2025, 6:24 p.m.

Reference frame: TEME

Reference center: EARTH

Epoch: Dec. 14, 2025, 7:30 a.m. UTC

TLE line 0: 0 COSMOS 1579

TLE line 1: 1 15085U 84069A 25348.31303623 -.00000047 00000-0 36248-4 0 9998

TLE line 2: 2 15085 65.0493 203.6605 0031826 98.9614 261.5052 13.86208091100153

Live tracking on map

Real-time ground track for satellite COSMOS 1579.

In-orbit conjunctions

A list of the most updated potential collisions computed for object COSMOS 1579.

Target Orbit TCA Probability of collision Miss distance Type
NOAA 16 DEB SSO 2024-10-08 15:30:43 0.0001552777 299.0 (m) DEBRIS

Associated space launch

Active radar satellite for ocean surveillance powered by a nuclear reactor.

COSMOS 1579 was lifted into orbit during the mission ‘Tsiklon-2 | US-A 24’, on board a Tsiklon-2 space rocket.

The launch took place on June 29, 1984, 12:21 a.m. from 90.

For more information about the launch, click the button.

Launch to space Tsiklon-2 | US-A 24
Tsiklon-2 | US-A 24

Agency: N/A

Status: Launch Successful

Launch date: June 29, 1984, 12:21 a.m. UTC

Rocket: Tsiklon-2

Launch pad: 90

Location: Baikonur Cosmodrome, Republic of Kazakhstan

...

Latest news about this satellite

There are no fresh news available about this satellite. Check back as we update our databases every day.


Newsletter sign-up

Weekly statistics, charts and insights to help you stay on top of the space industry.